Location: Bailleul
(50.3375°N, 2.8513°E)
Time: 17:44:10
(UTC+00:00)

Cosmos 2016 Rocket - Pass Details

Date: 24 October 2021
Orbit: 946 x 1001 km, 83.0° (Epoch: 26 November)

Event Time Altitude Azimuth Distance (km) Brightness Sun altitude
Exits shadow 19:24:03 28° 30° (NNE) 1,720 5.1 -26.9°
Drops below altitude 10° 19:26:55 10° 17° (NNE) 2,693 6.3 -27.3°
Sets 19:29:28 0° 13° (NNE) 3,638 7.0 -27.7°
